Corpus Christi, TX

10:56 AM CDT on July 23, 2017 (GMT -0500)
Corpus Christi International

Weather History for KCRP - January, 2012

Change the Weather History Date:

Friday, January 20, 2012

  Actual Average Record
Temperature  
Mean Temperature 74 °F 57 °F  
Max Temperature 85 °F 67 °F 85 °F (1972)
Min Temperature 63 °F 47 °F 25 °F (1963)
Degree Days  
Heating Degree Days 0 9  
Month to date heating degree days 119 180  
Since 1 July heating degree days 432 531  
Cooling Degree Days 9 1  
Month to date cooling degree days 35 20  
Year to date cooling degree days 35 20  
Growing Degree Days 24 (Base 50)    
Moisture  
Dew Point 65 °F    
Average Humidity 78    
Maximum Humidity 100    
Minimum Humidity 55    
Precipitation  
Precipitation 0.00 in 0.05 in 0.76 in (1891)
Month to date precipitation 0.01 0.99  
Year to date precipitation 0.01 0.99  
Snow  
Snow 0.00 in - - ()
Month to date snowfall 0.0  
Since 1 July snowfall 0.0  
Snow Depth 0.00 in    
Sea Level Pressure  
Sea Level Pressure 29.85 in    
Wind  
Wind Speed 15 mph (South)    
Max Wind Speed 26 mph    
Max Gust Speed 30 mph    
Visibility 8 miles    
Events      
T = Trace of Precipitation, MM = Missing Value Source: NWS Daily Summary

Daily Weather History Graph

Daily Weather History Graph

Search for Another Location

Airport or City:

Trip Planner

Search our weather history database for the weather conditions in past years. The results will help you decide how hot, cold, wet, or windy it might be!

Date:

Astronomy

Jan. 20, 2012 Rise Set
Actual Time 7:21 AM CST 6:00 PM CST
Civil Twilight 6:56 AM CST 6:25 PM CST
Nautical Twilight 6:27 AM CST 6:54 PM CST
Astronomical Twilight 5:59 AM CST 7:22 PM CST
Moon 4:54 AM CST (1/20) 3:39 PM CST (1/20)
Length of Visible Light 11h 29m
Length of Day
10h 39m
Waning Crescent, 8% of the Moon is Illuminated
Jan 20
Waning Crescent
Jan 23
New
Jan 30
First Quarter
Feb 7
Full
Feb 14
Last Quarter

Hourly Weather History & Observations

Time (CST) Temp. Heat Index Dew Point Humidity Pressure Visibility Wind Dir Wind Speed Gust Speed Precip Events Conditions
12:21 AM 66.2 °F - 64.4 °F 94% 29.89 in 8.0 mi South 12.7 mph - N/A   Partly Cloudy
12:51 AM 66.9 °F - 64.0 °F 90% 29.88 in 8.0 mi SSE 13.8 mph - N/A   Partly Cloudy
1:51 AM 66.0 °F - 64.9 °F 96% 29.87 in 8.0 mi South 12.7 mph - N/A   Partly Cloudy
2:46 AM 66.2 °F - 64.4 °F 94% 29.86 in 8.0 mi South 11.5 mph - N/A   Mostly Cloudy
2:51 AM 66.9 °F - 64.9 °F 93% 29.86 in 6.0 mi South 10.4 mph - N/A   Mostly Cloudy
3:19 AM 66.2 °F - 64.4 °F 94% 29.85 in 7.0 mi South 12.7 mph - N/A   Partly Cloudy
3:51 AM 64.9 °F - 64.0 °F 97% 29.85 in 6.0 mi South 9.2 mph - N/A   Partly Cloudy
4:51 AM 64.0 °F - 63.0 °F 96% 29.84 in 3.0 mi South 6.9 mph - N/A   Scattered Clouds
4:56 AM 64.4 °F - 62.6 °F 94% 29.84 in 3.0 mi South 5.8 mph - N/A   Mostly Cloudy
5:35 AM 64.4 °F - 62.6 °F 94% 29.84 in 5.0 mi South 8.1 mph - N/A   Scattered Clouds
5:51 AM 64.0 °F - 63.0 °F 96% 29.85 in 6.0 mi South 8.1 mph - N/A   Partly Cloudy
6:51 AM 63.0 °F - 62.1 °F 97% 29.86 in 7.0 mi South 6.9 mph - N/A   Partly Cloudy
7:51 AM 64.0 °F - 62.1 °F 93% 29.88 in 3.0 mi South 8.1 mph - N/A   Partly Cloudy
8:40 AM 69.8 °F - 66.2 °F 88% 29.89 in 8.0 mi South 10.4 mph - N/A   Mostly Cloudy
8:51 AM 70.0 °F - 66.9 °F 90% 29.90 in 9.0 mi South 12.7 mph - N/A   Mostly Cloudy
9:51 AM 73.0 °F - 64.9 °F 76% 29.91 in 10.0 mi South 19.6 mph 28.8 mph N/A   Mostly Cloudy
10:51 AM 75.0 °F - 66.0 °F 73% 29.91 in 10.0 mi South 17.3 mph - N/A   Mostly Cloudy
11:51 AM 78.1 °F - 64.9 °F 64% 29.87 in 10.0 mi South 17.3 mph 25.3 mph N/A   Mostly Cloudy
11:56 AM 78.8 °F - 64.4 °F 61% 29.87 in 10.0 mi South 20.7 mph - N/A   Mostly Cloudy
12:51 PM 82.0 °F 83.8 °F 64.9 °F 56% 29.84 in 10.0 mi South 21.9 mph 27.6 mph N/A   Mostly Cloudy
1:51 PM 82.9 °F 84.6 °F 64.9 °F 54% 29.81 in 10.0 mi South 13.8 mph 27.6 mph N/A   Mostly Cloudy
2:51 PM 84.9 °F 87.1 °F 66.0 °F 53% 29.80 in 10.0 mi SSE 16.1 mph 23.0 mph N/A   Scattered Clouds
3:51 PM 82.0 °F 84.1 °F 66.0 °F 58% 29.78 in 10.0 mi SSE 24.2 mph - N/A   Scattered Clouds
4:51 PM 79.0 °F - 66.0 °F 64% 29.80 in 10.0 mi SSE 23.0 mph - N/A   Partly Cloudy
5:51 PM 75.0 °F - 66.0 °F 73% 29.81 in 10.0 mi SSE 21.9 mph - N/A   Partly Cloudy
6:51 PM 72.0 °F - 64.9 °F 78% 29.83 in 10.0 mi SSE 20.7 mph - N/A   Partly Cloudy
7:51 PM 72.0 °F - 66.0 °F 81% 29.84 in 10.0 mi SSE 20.7 mph - N/A   Partly Cloudy
8:51 PM 71.1 °F - 64.9 °F 81% 29.85 in 10.0 mi South 15.0 mph - N/A   Clear
9:51 PM 69.1 °F - 64.9 °F 87% 29.86 in 10.0 mi South 11.5 mph - N/A   Clear
10:51 PM 66.9 °F - 64.0 °F 90% 29.87 in 10.0 mi SSE 8.1 mph - N/A   Partly Cloudy
11:51 PM 66.0 °F - 64.0 °F 93% 29.87 in 10.0 mi SSE 9.2 mph - N/A   Partly Cloudy